ATLAS 5 CENTAUR DEB, 47120

Orbit data source: Space-Track

ATLAS 5 CENTAUR DEB, 47120 is space debris in HEO originally from a launch on Wed, 17 Sep 2014 UTC launched from the Air Force Eastern Test Range (AFETR). Debris objects in space refer to the collection of defunct objects orbiting the Earth. Examples of debris include non-operational satellites, rocket bodies, and fragments generated from explosions, collisions, or faulty payload assembly.

Loading next visibility...
Identifier
47120, 2014-055DF
Orbit
HEO
Country
Flag of USUS
Related business
Flag of USUnited Launch Alliance/Lockheed Martin (US)
Manufacturer
Unknown
Mission
Spacecraft
Bus & Motor
Unknown
Mass
Unknown
Launch date (UTC)
2014-09-17 (11 years ago)
Launch vehicle
Unknown
Launch site
Air Force Eastern Test Range (AFETR)
Object type
Payload
Rocket body
Debris
Shape & HBR
Unknown shape, 1.1 m
Radar Cross Section
Small (<0.1 m²)

Expand to show TLE details & history
Last TLE update: 4 months ago

TLE from 4 months ago
0 ATLAS 5 CENTAUR DEB
1 47120U 14055DF  25227.09303237  .00000007  00000-0  00000+0 0  9990
2 47120  19.1922 207.3752 4814195  45.4934 345.0201  1.73007169 30661
Epoch: 2025-08-15T02:13Z
TLE epoch observation values (Epoch: 2025-08-15T02:13:57.996Z)
Latitude
0.00003°
Longitude
-149.93858°
Altitude
10,483.719 km
Speed
5.803 km/s
True Right ascension
13h 49m 12s
True Declination
0° 00' 00"
Sunlit
Object was in daylight at epoch
Visualization orbit readout
Latitude
Unknown
Longitude
Unknown
Altitude
Unknown
Speed
Unknown
Apparent Right ascension
Unknown
Apparent Declination
Unknown
Sunlit
N/A
Visualization observer readout
Local Sidereal Time
11:43:02
Azimuth
Unknown
Elevation
Unknown
Doppler factor
Unknown
Orbital elements
Apogee altitude
37,046.061 km
Perigee altitude
8,822.785 km
Semi-major axis
29,312.56 km
Eccentricity
0.48142
Inclination
19.1922°
RAAN
207.3752°
Arg. of periapsis
45.4934°
True anomaly
314.48534°
Mean anomaly
345.0201°
Eccentric anomaly
332.12271°
Mean motion
0.43248 °/min
Orbital period
832.42 mins
BSTAR
0
Loading maneuver chart data...
Computing Atmospheric mass density...

Documentation

Showing up to 5 results
|